Location: Villingen
(48.0639°N, 8.4609°E)
Time: 20:19:38
(UTC+01:00)

ISS - Pass Details

Date: 04 January 2018
Orbit: 402 x 407 km, 51.6° (Epoch: 20 January)

Event Time Altitude Azimuth Distance (km) Brightness Sun altitude
Exits shadow 05:21:15 17° 68° (ENE) 1,136 -0.9 -28.2°
Drops below altitude 10° 05:22:05 10° 68° (ENE) 1,470 -0.2 -28.0°
Sets 05:24:10 0° 68° (ENE) 2,334 1.0 -27.7°
